FW4435 Weather Reports


time (UTC)temp
F
wind
direction
speed
knots
gust
knots
rain 1hr
in
rain 24hr
in
rain mn
in
humidity
%
barometer
mb
20260504150722 55 286 13.0 16.5 0.00 0.01 0.01 56 1006.4
20260504150219 55 252 7.8 8.7 0.00 0.01 0.01 55 1006.8
20260504141148 55 224 1.7 1.7 0.00 0.01 0.01 55 1006.8
20260504140645 55 286 13.9 16.5 0.00 0.01 0.01 54 1006.8
20260504140140 55 274 8.7 11.3 0.00 0.01 0.01 55 1006.8
20260504130609 53 148 3.5 3.5 0.00 0.01 0.01 59 1006.8
20260504130105 53 193 3.5 3.5 0.00 0.01 0.01 60 1006.8
20260504110456 46 188 1.7 2.6 0.00 0.01 0.01 77 1007.4
20260504100419 46 237 3.5 3.5 0.00 0.01 0.01 77 1007.4
20260504081812 44 188 1.7 1.7 0.00 0.01 0.01 80 1007.4
20260504081309 45 243 5.2 6.1 0.00 0.01 0.01 79 1007.4
20260504080804 45 212 2.6 3.5 0.00 0.01 0.01 78 1007.8
20260504080301 45 215 7.0 7.8 0.00 0.01 0.01 78 1007.8
20260504070229 43 244 3.5 3.5 0.00 0.01 0.01 76 1007.8
20260504060149 42 208 3.5 3.5 0.00 0.00 0.00 71 1007.8
20260504050618 43 247 10.4 12.2 0.00 0.00 0.00 61 1008.1
20260504050115 44 210 12.2 13.9 0.00 0.00 0.00 59 1008.1
20260504045612 44 258 5.2 6.1 0.00 0.00 0.00 52 1008.1
20260504045106 44 226 3.5 3.5 0.00 0.00 0.00 52 1008.1
20260504044605 44 215 4.3 5.2 0.00 0.00 0.00 52 1008.1
20260504044101 44 223 7.0 8.7 0.00 0.00 0.00 52 1008.6
20260504043558 44 224 6.1 7.0 0.00 0.00 0.00 51 1008.1
20260504043055 44 213 4.3 6.1 0.00 0.00 0.00 51 1008.6
20260504042552 43 234 5.2 6.1 0.00 0.00 0.00 52 1008.6
20260504042049 44 230 5.2 6.1 0.00 0.00 0.00 51 1008.1
20260504041545 43 191 1.7 2.6 0.00 0.00 0.00 52 1008.6
20260504041041 43 190 4.3 5.2 0.00 0.00 0.00 51 1008.1
20260504040539 43 180 3.5 3.5 0.00 0.00 0.00 52 1008.1
20260504040035 43 190 4.3 5.2 0.00 0.00 0.00 51 1008.1
20260504035532 42 190 7.8 7.8 0.00 0.00 0.00 53 1008.1
20260504035029 41 203 3.5 3.5 0.00 0.00 0.00 53 1008.1
20260504034527 39 193 2.6 2.6 0.00 0.00 0.00 57 1008.1
20260504034023 39 216 2.6 2.6 0.00 0.00 0.00 59 1008.1
20260504033521 39 200 2.6 2.6 0.00 0.00 0.00 58 1008.1
20260504033018 41 186 3.5 3.5 0.00 0.00 0.00 55 1008.1
20260504032515 42 189 3.5 3.5 0.00 0.00 0.00 51 1007.8
20260504032012 42 197 4.3 5.2 0.00 0.00 0.00 51 1008.1
20260504031509 43 226 5.2 6.1 0.00 0.00 0.00 51 1008.1
20260504031005 42 192 4.3 5.2 0.00 0.00 0.00 53 1008.1
20260504030503 43 200 3.5 3.5 0.00 0.00 0.00 50 1008.1
20260504025958 41 202 5.2 6.1 0.00 0.00 0.00 52 1008.1
20260504025455 42 191 4.3 5.2 0.00 0.00 0.00 54 1008.1
20260504024952 41 203 3.5 3.5 0.00 0.00 0.00 55 1008.1
20260504024449 40 193 3.5 3.5 0.00 0.00 0.00 58 1008.1
20260504023946 40 216 5.2 5.2 0.00 0.00 0.00 58 1008.1
20260504023443 40 212 4.3 5.2 0.00 0.00 0.00 58 1008.1
20260504022938 40 215 4.3 5.2 0.00 0.00 0.00 57 1007.8
20260504022435 42 183 2.6 2.6 0.00 0.00 0.00 54 1008.6
20260504021932 41 181 3.5 3.5 0.00 0.00 0.00 55 1008.1
20260504021429 41 193 3.5 3.5 0.00 0.00 0.00 56 1008.1
20260504020926 42 198 3.5 3.5 0.00 0.00 0.00 55 1008.1
20260504020423 42 185 2.6 2.6 0.00 0.00 0.00 54 1008.6
20260504015919 43 193 3.5 3.5 0.00 0.00 0.00 55 1008.6
20260504015415 43 221 3.5 3.5 0.00 0.00 0.00 54 1008.6
20260504014912 42 199 2.6 3.5 0.00 0.00 0.00 54 1008.1
20260504014408 42 197 3.5 3.5 0.00 0.00 0.00 54 1008.6
20260504013905 43 201 3.5 3.5 0.00 0.00 0.00 54 1008.1
20260504013403 43 201 3.5 3.5 0.00 0.00 0.00 54 1008.1
20260504012859 42 213 3.5 3.5 0.00 0.00 0.00 55 1008.1
20260504012357 42 184 2.6 2.6 0.00 0.00 0.00 55 1008.1
20260504011854 41 191 1.7 2.6 0.00 0.00 0.00 56 1007.8
20260504011351 41 181 0.9 1.7 0.00 0.00 0.00 59 1007.8
20260504010847 41 164 1.7 1.7 0.00 0.00 0.00 58 1007.8
20260504010342 43 186 1.7 1.7 0.00 0.00 0.00 56 1007.8
20260504005839 43 178 0.9 1.7 0.00 0.00 0.00 53 1007.8
20260504005336 44 241 1.7 1.7 0.00 0.00 0.00 53 1007.8
20260504004833 44 282 4.3 5.2 0.00 0.00 0.00 53 1007.4
20260504004331 43 223 2.6 2.6 0.00 0.00 0.00 53 1007.4
20260504003827 42 255 1.7 1.7 0.00 0.00 0.00 54 1007.4
20260504003324 42 177 1.7 1.7 0.00 0.00 0.00 57 1007.8
20260504002821 43 193 1.7 2.6 0.00 0.00 0.00 54 1007.4
20260504002318 42 194 2.6 2.6 0.00 0.00 0.00 55 1007.4
20260504001815 42 147 0.0 0.0 0.00 0.00 0.00 57 1007.4
20260504001313 42 158 0.0 0.0 0.00 0.00 0.00 57 1007.4
20260504000809 42 162 1.7 1.7 0.00 0.00 0.00 56 1007.4
20260504000306 42 153 0.9 0.9 0.00 0.00 0.00 56 1007.4
20260503235804 44 146 0.9 0.9 0.00 0.00 0.00 54 1007.4
20260503235301 44 143 0.0 0.0 0.00 0.00 0.00 52 1007.1
20260503234759 44 153 0.0 0.0 0.00 0.00 0.00 53 1007.1
20260503234257 45 177 0.9 0.9 0.00 0.00 0.00 52 1007.4
20260503233754 44 288 3.5 3.5 0.00 0.00 0.00 52 1007.1
20260503233249 45 261 3.5 3.5 0.00 0.00 0.00 52 1007.1
20260503232747 45 165 1.7 2.6 0.00 0.00 0.00 51 1007.1
20260503232244 45 193 0.9 0.9 0.00 0.00 0.00 52 1007.1
20260503231742 45 246 0.9 0.9 0.00 0.00 0.00 51 1007.1
20260503231239 46 230 3.5 3.5 0.00 0.00 0.00 50 1007.1
20260503230734 46 273 5.2 7.0 0.00 0.00 0.00 51 1007.1
20260503230232 46 327 3.5 6.1 0.00 0.00 0.00 50 1007.1
20260503225729 46 207 1.7 1.7 0.00 0.00 0.00 52 1007.1
20260503225229 46 254 4.3 7.0 0.00 0.00 0.00 50 1007.1
20260503224726 46 72 0.9 0.9 0.00 0.00 0.00 52 1007.1
20260503224224 46 251 1.7 2.6 0.00 0.00 0.00 51 1006.8
20260503223722 47 169 0.9 1.7 0.00 0.00 0.00 51 1007.1
20260503223219 46 150 1.7 2.6 0.00 0.00 0.00 51 1007.1
20260503222715 47 280 7.0 8.7 0.00 0.00 0.00 49 1007.1
20260503222213 47 245 2.6 2.6 0.00 0.00 0.00 50 1007.4
20260503221712 47 91 1.7 2.6 0.00 0.00 0.00 52 1007.1
20260503221209 46 36 3.5 5.2 0.00 0.00 0.00 51 1007.1
20260503220705 46 284 3.5 5.2 0.00 0.00 0.00 50 1007.1
20260503220202 46 277 4.3 5.2 0.00 0.00 0.00 50 1006.8
20260503215659 46 279 4.3 5.2 0.00 0.00 0.00 51 1007.1
20260503215155 46 306 1.7 3.5 0.00 0.00 0.00 52 1006.8
20260503214654 46 358 2.6 3.5 0.00 0.00 0.00 52 1006.8
20260503214149 45 259 5.2 7.8 0.00 0.00 0.00 52 1007.1
20260503213644 47 303 3.5 3.5 0.00 0.00 0.00 50 1006.8
20260503213140 46 297 7.8 8.7 0.00 0.00 0.00 50 1006.8
20260503212637 45 271 9.6 13.9 0.00 0.00 0.00 51 1006.8
20260503212134 46 67 1.7 2.6 0.00 0.00 0.00 52 1007.1
20260503211632 46 283 4.3 6.1 0.00 0.00 0.00 52 1006.8
20260503211127 46 153 1.7 1.7 0.00 0.00 0.00 53 1006.8
20260503210624 46 254 2.6 2.6 0.00 0.00 0.00 54 1006.8
20260503210121 45 226 3.5 5.2 0.00 0.00 0.00 54 1007.1
20260503205616 45 229 9.6 12.2 0.00 0.00 0.00 54 1006.8
20260503205113 45 114 7.0 7.8 0.00 0.00 0.00 55 1006.8
20260503204610 45 282 5.2 6.1 0.00 0.00 0.00 55 1006.8
20260503204107 44 301 4.3 6.1 0.00 0.00 0.00 55 1006.8
20260503203604 44 171 1.7 1.7 0.00 0.00 0.00 54 1006.8
20260503203101 44 44 1.7 1.7 0.00 0.00 0.00 55 1007.1
20260503202559 44 282 4.3 6.1 0.00 0.00 0.00 54 1006.8
20260503202057 44 207 2.6 2.6 0.00 0.00 0.00 55 1006.8
20260503201555 44 294 4.3 5.2 0.00 0.00 0.00 54 1007.1
20260503201052 44 244 6.1 7.0 0.00 0.00 0.00 53 1006.8
20260503200548 45 12 3.5 3.5 0.00 0.00 0.00 54 1006.8
20260503200044 45 346 2.6 3.5 0.00 0.00 0.00 53 1006.8
20260503195542 45 324 6.1 7.8 0.00 0.00 0.00 52 1006.8
20260503195038 46 332 6.1 8.7 0.00 0.00 0.00 52 1006.8
20260503194536 45 311 5.2 7.0 0.00 0.00 0.00 52 1006.8
20260503194035 45 186 1.7 3.5 0.00 0.00 0.00 54 1007.1
20260503193532 44 334 1.7 2.6 0.00 0.00 0.00 53 1007.1
20260503193027 44 312 7.0 7.8 0.00 0.00 0.00 52 1007.1
20260503192524 44 329 7.0 8.7 0.00 0.00 0.00 52 1007.4
20260503192020 45 307 10.4 12.2 0.00 0.00 0.00 51 1007.1
20260503191517 45 44 2.6 2.6 0.00 0.00 0.00 53 1007.1
20260503191014 45 140 2.6 5.2 0.00 0.00 0.00 50 1007.1
20260503190511 45 316 7.8 11.3 0.00 0.00 0.00 50 1007.1
20260503190008 45 189 3.5 5.2 0.00 0.00 0.00 49 1007.1
20260503185503 45 270 8.7 11.3 0.00 0.00 0.00 49 1007.1
20260503184958 46 282 0.9 1.7 0.00 0.00 0.00 51 1007.1
20260503184454 46 131 3.5 5.2 0.00 0.00 0.00 50 1007.1
20260503183951 47 293 12.2 13.9 0.00 0.00 0.00 49 1007.1
20260503183448 45 163 0.9 1.7 0.00 0.00 0.00 52 1007.1
20260503182944 45 312 6.1 8.7 0.00 0.00 0.00 50 1007.1
20260503182443 45 358 6.1 8.7 0.00 0.00 0.00 50 1006.8
20260503181940 45 286 8.7 12.2 0.00 0.00 0.00 50 1006.8
20260503181437 45 252 13.0 14.8 0.00 0.00 0.00 49 1007.4
20260503180933 46 245 7.0 9.6 0.00 0.00 0.00 48 1007.1
20260503180432 45 327 7.8 11.3 0.00 0.00 0.00 48 1007.1
20260503175928 46 308 4.3 7.0 0.00 0.00 0.00 49 1007.1
20260503175427 45 333 5.2 7.8 0.00 0.00 0.00 50 1007.1
20260503174922 45 180 10.4 13.0 0.00 0.00 0.00 50 1006.8
20260503174420 45 311 7.8 13.9 0.00 0.00 0.00 49 1007.1
20260503173920 45 24 3.5 5.2 0.00 0.00 0.00 49 1006.8
20260503173417 46 331 5.2 7.0 0.00 0.00 0.00 46 1006.8
20260503172914 46 45 3.5 6.1 0.00 0.00 0.00 46 1006.8
20260503172411 46 253 1.7 2.6 0.00 0.00 0.00 48 1006.8
20260503171907 46 259 3.5 5.2 0.00 0.00 0.00 48 1006.8
20260503171404 47 357 5.2 7.8 0.00 0.00 0.00 48 1006.4
20260503170902 47 31 3.5 5.2 0.00 0.00 0.00 49 1006.4
20260503170358 46 5 5.2 7.8 0.00 0.00 0.00 47 1006.8